$DATE,$TIME,DM0600B,DM0602B,DM0604B,DM0614B,DM0616B,DM0618B,DM0624B,DM0628B,DM0630B,DM0634B,DM0606B,DM0608B,DM0610B
11/05/94,00:00:00,43,43,41,49,17,16,33,64,129,0,6,7,6
11/05/94,00:05:00,49,37,41,36,19,18,37,63,129,0,6,16,7
11/05/94,00:10:00,52,49,47,39,20,19,38,63,129,0,5,14,7
11/05/94,00:15:00,40,29,26,42,21,20,40,63,129,0,6,11,7
11/05/94,00:20:00,39,24,44,42,21,20,41,61,129,0,5,9,6
11/05/94,00:25:00,52,37,51,43,20,19,38,61,129,0,5,8,6
11/05/94,00:30:00,44,42,48,47,23,22,44,61,129,0,5,7,6
11/05/94,00:35:00,31,27,39,48,24,23,46,61,129,0,6,6,6
11/05/94,00:40:00,43,41,39,39,25,24,48,61,129,0,6,6,6
11/05/94,00:45:00,52,34,41,51,26,24,49,61,129,0,6,6,6
11/05/94,00:50:00,35,34,48,40,26,24,48,62,129,0,5,5,6
11/05/94,00:55:00,54,39,31,41,25,23,47,61,129,0,5,5,6
11/05/94,01:00:00,40,35,45,37,26,24,49,61,129,0,5,5,6
11/05/94,01:05:00,47,30,43,45,27,25,51,63,129,0,6,6,6
11/05/94,01:10:00,40,33,41,43,31,29,58,64,129,0,5,6,7
11/05/94,01:15:00,26,33,46,42,41,37,76,63,129,0,5,6,6
11/05/94,01:20:00,32,32,38,35,43,39,79,63,128,0,5,6,6
11/05/94,01:25:00,37,37,43,35,39,36,72,63,128,0,6,6,6
11/05/94,01:30:00,31,28,36,34,34,31,62,63,129,0,6,6,6
11/05/94,01:35:00,32,26,47,36,28,26,52,64,133,0,5,6,6
11/05/94,01:40:00,41,25,50,32,26,24,47,64,129,0,6,6,6
11/05/94,01:45:00,46,16,41,39,23,21,43,64,129,0,6,6,6
11/05/94,01:50:00,48,31,40,38,24,22,45,64,129,0,6,6,6
11/05/94,01:55:00,56,22,44,31,27,25,50,64,129,0,5,6,6
11/05/94,02:00:00,35,25,47,33,30,27,56,64,129,0,5,7,6
11/05/94,02:05:00,42,27,36,33,32,29,59,64,120,0,5,7,6
11/05/94,02:10:00,53,28,38,31,36,33,68,64,120,0,5,6,6
11/05/94,02:15:00,45,33,41,39,33,30,62,63,120,0,5,6,7
11/05/94,02:20:00,39,22,43,36,29,27,55,63,134,0,5,6,6
11/05/94,02:25:00,35,29,38,30,29,26,53,63,112,0,5,6,6
11/05/94,02:30:00,44,41,37,15,26,24,49,63,112,0,5,6,6
11/05/94,02:35:00,46,27,43,39,26,24,49,61,120,0,5,6,6
11/05/94,02:40:00,36,24,34,38,29,27,54,61,120,0,5,6,6
11/05/94,02:45:00,45,32,36,47,32,29,59,61,120,0,6,6,6
11/05/94,02:50:00,47,29,57,48,0,0,0,63,121,0,6,6,6
11/05/94,02:55:00,59,36,44,49,0,0,0,64,121,0,6,7,6
11/05/94,03:00:00,54,43,41,57,0,0,0,61,125,0,6,7,6
11/05/94,03:05:00,28,32,51,54,0,0,0,61,146,0,6,7,6
11/05/94,03:10:00,51,42,47,55,0,0,0,61,121,0,6,6,6
11/05/94,03:15:00,66,34,37,51,0,0,0,61,121,0,5,6,6
11/05/94,03:20:00,43,35,57,52,0,0,0,62,121,0,6,6,7
11/05/94,03:25:00,56,38,59,55,0,0,0,62,121,0,6,6,7
11/05/94,03:30:00,71,38,45,54,0,0,0,61,120,0,6,6,7
11/05/94,03:35:00,70,30,53,54,0,0,0,61,120,0,6,6,7
11/05/94,03:40:00,65,32,60,53,0,0,0,64,120,0,6,6,6
11/05/94,03:45:00,62,43,46,55,0,0,0,64,120,0,7,6,6
11/05/94,03:50:00,54,43,46,53,0,0,0,63,145,0,7,7,6
11/05/94,03:55:00,63,39,51,47,0,0,0,63,120,0,7,7,6
11/05/94,04:00:00,71,36,59,52,0,0,0,63,129,0,7,7,6
11/05/94,04:05:00,68,34,59,53,0,0,0,63,135,0,7,6,6
11/05/94,04:10:00,69,35,63,46,0,0,0,63,131,0,7,6,6
11/05/94,04:15:00,6,10,21,17,51,57,104,64,132,0,7,8,7
11/05/94,04:20:00,32,12,22,31,36,37,65,64,133,0,16,19,21
11/05/94,04:25:00,2,0,4,1,44,50,91,65,131,0,20,21,16
11/05/94,04:30:00,0,0,0,0,67,45,108,65,96,0,16,15,12
11/05/94,04:35:00,0,1,0,1,50,32,77,62,118,0,14,22,12
11/05/94,04:40:00,26,6,12,20,28,17,63,62,96,0,22,26,26
11/05/94,04:45:00,0,0,3,3,64,42,103,62,96,0,24,17,17
11/05/94,04:50:00,32,26,1,1,60,38,92,61,87,0,18,13,12
11/05/94,04:55:00,3,0,0,0,60,39,95,61,95,0,14,12,10
11/05/94,05:00:00,5,0,0,15,60,38,94,61,95,0,12,20,9
11/05/94,05:05:00,19,20,19,33,58,38,92,61,95,0,11,15,8
11/05/94,05:10:00,22,14,23,15,61,38,96,61,95,0,11,12,8
11/05/94,05:15:00,8,12,13,8,63,39,98,61,95,0,17,10,7
11/05/94,05:20:00,0,9,26,5,67,41,105,61,96,0,15,9,7
11/05/94,05:25:00,43,42,30,27,72,43,111,60,94,0,13,8,7
11/05/94,05:30:00,2,7,21,8,41,39,77,61,102,0,12,8,7
11/05/94,05:35:00,2,1,1,6,39,37,73,61,95,0,11,7,7
11/05/94,05:40:00,8,13,16,25,43,41,87,61,95,0,10,13,7
11/05/94,05:45:00,0,0,0,0,49,46,91,62,93,0,11,25,11
11/05/94,05:50:00,33,51,58,45,42,40,79,61,93,0,21,18,18
11/05/94,05:55:00,10,17,14,16,33,30,61,59,92,0,19,13,13
11/05/94,06:00:00,0,0,0,0,38,35,74,59,93,0,15,11,10
11/05/94,06:05:00,29,10,0,39,44,42,84,59,94,0,13,11,9
11/05/94,06:10:00,0,27,19,22,44,41,82,59,93,0,13,22,13
11/05/94,06:15:00,0,0,0,0,41,39,77,59,93,0,16,18,14
11/05/94,06:20:00,0,0,0,0,61,35,92,60,94,0,14,15,11
11/05/94,06:25:00,0,0,0,0,54,32,82,60,94,0,22,25,23
11/05/94,06:30:00,38,30,28,0,48,28,73,59,94,0,24,23,17
11/05/94,06:35:00,33,33,40,23,44,26,67,59,96,0,18,16,12
11/05/94,06:40:00,0,0,0,0,42,24,64,59,97,0,15,12,10
11/05/94,06:45:00,36,35,39,23,26,15,39,59,97,0,14,19,13
11/05/94,06:50:00,20,20,26,21,39,23,60,59,120,0,17,20,15
11/05/94,06:55:00,22,20,29,18,38,22,59,59,96,0,15,15,12
11/05/94,07:00:00,11,8,16,11,37,21,57,59,97,0,13,12,10
11/05/94,07:05:00,8,5,8,4,36,21,56,60,97,0,16,21,17
11/05/94,07:10:00,1,3,11,5,35,21,54,60,97,0,26,26,20
11/05/94,07:15:00,7,7,11,10,34,20,53,60,101,0,22,18,15
11/05/94,07:20:00,4,8,9,4,33,20,51,60,102,0,21,26,27
11/05/94,07:25:00,12,11,14,15,32,19,50,60,101,0,29,27,17
11/05/94,07:30:00,14,8,11,14,31,19,48,60,101,0,22,18,26
11/05/94,07:35:00,5,5,10,5,30,18,47,61,110,0,21,27,18
11/05/94,07:40:00,2,4,9,8,29,17,46,61,102,0,30,32,30
11/05/94,07:45:00,2,7,15,3,28,17,44,61,102,0,26,23,23
11/05/94,07:50:00,4,0,0,1,27,16,42,61,102,0,27,32,30
11/05/94,07:55:00,6,1,5,4,25,16,40,61,102,0,36,36,31
11/05/94,08:00:00,0,0,0,0,24,15,38,62,103,0,27,27,25
11/05/94,08:05:00,0,0,0,0,22,14,36,62,103,0,33,36,39
11/05/94,08:10:00,0,0,0,0,21,14,34,62,103,0,40,40,29
11/05/94,08:15:00,0,0,0,0,21,14,34,62,103,0,36,41,38
11/05/94,08:20:00,0,0,0,0,21,14,34,62,118,0,32,42,34
11/05/94,08:25:00,0,0,0,0,20,13,33,62,95,0,41,43,32
11/05/94,08:30:00,0,0,0,0,20,13,32,62,95,0,42,42,38
11/05/94,08:35:00,0,0,0,0,20,13,32,62,95,0,42,43,28
11/05/94,08:40:00,0,0,0,0,20,12,31,62,91,0,42,40,40
11/05/94,08:45:00,0,0,0,0,19,12,30,62,91,0,43,32,29
11/05/94,08:50:00,0,0,0,0,18,11,29,62,91,0,41,40,43
11/05/94,08:55:00,0,0,0,0,17,10,27,62,91,0,32,42,31
11/05/94,09:00:00,0,0,0,0,17,10,26,62,91,0,40,41,41
11/05/94,09:05:00,0,0,0,0,16,10,25,62,91,0,43,43,35
11/05/94,09:10:00,0,0,0,0,16,9,25,62,91,0,36,39,34
11/05/94,09:15:00,0,0,0,0,15,9,24,62,91,0,34,34,39
11/05/94,09:20:00,0,0,0,0,14,9,23,62,93,0,42,41,31
11/05/94,09:25:00,0,0,0,0,14,8,22,62,93,0,43,43,39
11/05/94,09:30:00,0,0,0,0,13,8,21,65,101,0,43,42,30
11/05/94,09:35:00,0,0,0,0,13,8,20,65,101,0,45,43,42
11/05/94,09:40:00,0,0,0,0,12,7,20,65,101,0,30,43,32
11/05/94,09:45:00,0,0,0,0,12,7,19,64,101,0,39,42,44
11/05/94,09:50:00,0,0,0,0,11,7,18,64,101,0,44,42,34
11/05/94,09:55:00,0,0,0,0,11,6,17,64,101,0,42,31,41
11/05/94,10:00:00,0,0,0,0,10,6,17,64,101,0,40,39,35
11/05/94,10:05:00,0,0,0,0,10,6,16,64,101,0,43,41,37
11/05/94,10:10:00,0,0,0,0,9,6,15,64,101,0,43,43,39
11/05/94,10:15:00,0,0,0,0,9,5,15,64,93,0,33,34,30
11/05/94,10:20:00,0,0,0,0,9,5,14,64,93,0,37,36,41
11/05/94,10:25:00,0,0,0,0,8,5,14,64,95,0,44,43,30
11/05/94,10:30:00,0,0,0,0,8,5,13,64,102,0,30,33,44
11/05/94,10:35:00,0,0,0,0,8,5,13,64,108,0,37,34,32
11/05/94,10:40:00,0,0,0,0,7,5,12,64,95,0,42,40,43
11/05/94,10:45:00,0,0,0,0,7,4,12,64,95,0,41,40,32
11/05/94,10:50:00,0,0,0,0,7,4,11,64,95,0,41,41,42
11/05/94,10:55:00,0,0,0,0,7,4,11,64,95,0,43,42,30
11/05/94,11:00:00,0,0,0,0,6,4,11,64,95,0,42,42,37
11/05/94,11:05:00,0,0,0,0,6,4,10,64,95,0,28,29,19
11/05/94,11:10:00,0,0,0,0,6,4,10,65,95,0,16,14,10
11/05/94,11:15:00,0,0,0,0,6,4,10,65,95,0,9,8,3
11/05/94,11:20:00,0,0,0,0,5,3,9,65,111,0,3,4,0
11/05/94,11:25:00,0,0,0,0,5,3,9,65,96,0,1,1,0
11/05/94,11:30:00,0,0,0,0,5,3,9,65,96,0,0,0,0
11/05/94,11:35:00,0,0,0,0,5,3,9,65,96,0,0,0,0
11/05/94,11:40:00,0,0,0,0,5,3,9,65,96,0,0,0,0
11/05/94,11:45:00,0,0,0,0,5,3,8,65,96,0,0,0,0
11/05/94,11:50:00,0,0,0,0,5,3,8,65,96,0,0,0,0
11/05/94,11:55:00,0,0,0,0,5,3,8,65,96,0,0,0,0
11/05/94,12:00:00,0,0,0,0,5,3,8,65,96,0,0,0,0
11/05/94,12:05:00,0,0,0,0,4,3,8,65,96,0,0,0,0
11/05/94,12:10:00,0,0,0,0,4,3,8,65,104,0,0,0,0
11/05/94,12:15:00,0,0,0,0,4,3,8,65,104,0,0,0,0
11/05/94,12:20:00,0,0,0,0,4,3,8,65,104,0,0,0,0
11/05/94,12:25:00,0,0,0,0,4,3,8,65,106,0,0,0,0
11/05/94,12:30:00,0,0,0,0,4,3,8,65,104,0,0,0,0
11/05/94,12:35:00,0,0,0,0,4,3,8,65,96,0,0,0,0
11/05/94,12:40:00,0,0,0,0,4,3,8,65,87,0,0,0,0
11/05/94,12:45:00,0,0,0,0,4,3,8,65,85,0,0,0,0
11/05/94,12:50:00,0,0,0,0,4,3,8,65,101,0,0,0,0
11/05/94,12:55:00,0,0,0,0,4,3,8,65,92,0,0,0,0
11/05/94,13:00:00,0,0,0,0,4,3,8,65,92,0,0,0,0
11/05/94,13:05:00,0,0,0,0,4,3,8,65,92,0,0,0,0
11/05/94,13:10:00,0,0,0,0,5,3,8,65,92,0,0,0,0
11/05/94,13:15:00,0,0,0,0,5,3,8,65,92,0,0,0,0
11/05/94,13:20:00,0,0,0,0,5,3,8,65,101,0,0,0,0
11/05/94,13:25:00,0,0,0,0,5,3,8,65,101,0,0,0,0
11/05/94,13:30:00,0,0,0,0,5,3,9,65,101,0,0,0,0
11/05/94,13:35:00,0,0,0,0,5,3,9,65,104,0,0,0,0
11/05/94,13:40:00,0,0,0,0,5,3,9,65,101,0,0,0,0
11/05/94,13:45:00,0,0,0,0,5,3,9,65,101,0,0,0,0
11/05/94,13:50:00,0,0,0,0,5,3,9,65,101,0,0,0,0
11/05/94,13:55:00,0,0,0,0,5,3,10,65,86,0,0,0,0
11/05/94,14:00:00,0,0,0,0,6,4,10,65,86,0,0,0,0
11/05/94,14:05:00,0,0,0,0,6,4,10,65,95,0,0,0,0
11/05/94,14:10:00,0,0,0,0,6,4,10,65,95,0,0,0,0
11/05/94,14:15:00,0,0,0,0,6,4,10,65,95,0,0,0,0
11/05/94,14:20:00,0,0,0,0,6,3,10,65,117,0,0,0,0
11/05/94,14:25:00,0,0,0,0,7,3,10,65,87,0,0,0,0
11/05/94,14:30:00,0,0,0,0,7,2,10,65,95,0,0,0,0
11/05/94,14:35:00,0,0,0,0,7,3,10,66,95,0,0,0,0
11/05/94,14:40:00,0,0,0,0,8,3,11,65,95,0,0,0,0
11/05/94,14:45:00,0,0,0,0,8,4,13,65,87,0,0,0,0
11/05/94,14:50:00,0,0,0,0,8,5,14,65,87,0,0,7,0
11/05/94,14:55:00,4,11,11,0,9,5,14,65,94,0,0,24,0
11/05/94,15:00:00,20,18,27,0,9,5,15,65,94,0,0,39,0
11/05/94,15:05:00,8,26,14,7,9,6,15,65,117,0,0,43,0
11/05/94,15:10:00,17,17,19,0,10,6,16,65,94,0,0,41,0
11/05/94,15:15:00,7,1,9,6,10,6,17,65,94,0,0,43,0
11/05/94,15:20:00,13,12,7,5,11,6,17,65,95,0,0,43,0
11/05/94,15:25:00,8,7,10,0,11,7,18,65,94,0,0,43,0
11/05/94,15:30:00,8,11,18,0,12,7,19,65,94,0,0,43,0
11/05/94,15:35:00,10,8,19,4,12,7,19,65,94,0,0,43,0
11/05/94,15:40:00,10,22,20,15,13,7,20,65,94,0,0,43,0
11/05/94,15:45:00,21,28,22,18,13,8,21,65,94,0,0,44,0
11/05/94,15:50:00,17,21,32,12,14,8,22,65,95,0,0,43,0
11/05/94,15:55:00,22,16,20,21,13,8,22,65,94,0,0,44,0
11/05/94,16:00:00,22,43,40,26,14,8,23,65,94,0,0,28,0
11/05/94,16:05:00,10,18,17,23,15,9,24,65,94,0,0,38,0
11/05/94,16:10:00,18,15,24,21,16,9,25,64,94,0,0,43,0
11/05/94,16:15:00,21,38,34,26,17,10,26,65,94,0,0,29,0
11/05/94,16:20:00,10,10,13,0,17,10,27,65,87,0,0,41,0
11/05/94,16:25:00,12,25,40,17,18,10,28,65,87,0,0,43,0
11/05/94,16:30:00,7,10,20,17,19,11,29,65,86,0,0,41,0
11/05/94,16:35:00,5,9,15,8,19,11,30,65,86,0,0,43,0
11/05/94,16:40:00,17,9,22,13,20,12,31,64,78,0,0,42,0
11/05/94,16:45:00,12,16,25,13,21,12,33,64,78,0,0,28,0
11/05/94,16:50:00,28,17,6,29,22,13,34,64,78,0,0,38,0
11/05/94,16:55:00,45,45,50,21,23,13,35,64,77,0,0,36,0
11/05/94,17:00:00,24,24,46,22,23,14,36,64,77,0,0,31,0
11/05/94,17:05:00,13,10,13,8,24,14,38,64,77,0,0,40,0
11/05/94,17:10:00,7,3,8,6,25,15,39,64,77,0,0,27,0
11/05/94,17:15:00,18,19,24,17,26,15,40,64,77,0,0,36,0
11/05/94,17:20:00,20,17,26,23,27,15,41,64,77,0,0,37,0
11/05/94,17:25:00,16,21,18,14,28,16,43,64,77,0,0,30,0
11/05/94,17:30:00,18,22,26,20,29,17,44,64,77,0,0,40,0
11/05/94,17:35:00,10,7,13,10,30,17,46,64,77,0,0,26,0
11/05/94,17:40:00,6,10,21,12,31,18,47,64,77,0,0,37,0
11/05/94,17:45:00,21,30,28,22,32,18,49,64,77,0,0,40,0
11/05/94,17:50:00,21,20,16,19,33,19,50,64,77,0,0,30,0
11/05/94,17:55:00,33,20,43,14,34,19,52,64,77,0,0,41,0
11/05/94,18:00:00,15,9,16,6,35,20,54,64,77,0,0,29,0
11/05/94,18:05:00,18,19,32,18,36,21,55,64,77,0,0,34,0
11/05/94,18:10:00,29,29,12,13,37,21,57,64,77,0,0,40,0
11/05/94,18:15:00,21,20,24,36,38,22,59,64,77,0,0,27,0
11/05/94,18:20:00,21,20,22,13,39,23,60,64,76,0,0,37,0
11/05/94,18:25:00,22,23,19,24,41,23,62,64,77,0,0,25,0
11/05/94,18:30:00,9,17,29,10,42,24,64,64,77,0,0,35,0
11/05/94,18:35:00,4,3,7,2,43,25,65,64,77,0,0,32,0
11/05/94,18:40:00,2,13,27,15,44,25,67,64,77,0,0,31,0
11/05/94,18:45:00,15,14,15,4,45,26,69,64,77,0,0,39,0
11/05/94,18:50:00,1,4,15,4,46,26,71,64,77,0,0,27,0
11/05/94,18:55:00,12,15,8,7,48,27,72,64,77,0,0,37,0
11/05/94,19:00:00,0,5,19,14,49,28,74,64,77,0,0,34,0
11/05/94,19:05:00,7,0,0,0,50,28,76,64,77,0,0,31,0
11/05/94,19:10:00,6,0,0,0,51,29,78,64,77,0,0,39,0
11/05/94,19:15:00,0,2,6,7,52,30,79,64,77,0,0,41,0
11/05/94,19:20:00,1,6,5,5,53,30,81,64,77,0,0,40,0
11/05/94,19:25:00,0,0,2,0,55,31,83,64,77,0,0,36,0
11/05/94,19:30:00,0,0,0,0,56,32,85,64,77,0,0,32,0
11/05/94,19:35:00,0,0,4,3,57,32,86,64,77,0,0,40,0
11/05/94,19:40:00,0,0,0,0,58,33,88,64,77,0,0,42,0
11/05/94,19:45:00,2,0,0,0,59,34,90,64,77,0,0,40,0
11/05/94,19:50:00,0,0,9,2,60,34,91,64,77,0,0,36,0
11/05/94,19:55:00,19,10,9,6,61,35,93,64,77,0,0,32,0
11/05/94,20:00:00,11,27,17,11,62,36,94,64,77,0,0,40,0
11/05/94,20:05:00,16,16,10,10,63,36,96,64,77,0,0,25,0
11/05/94,20:10:00,2,5,17,2,64,37,97,64,77,0,0,35,0
11/05/94,20:15:00,1,0,0,0,65,38,99,64,77,0,0,33,0
11/05/94,20:20:00,3,0,0,0,66,38,101,64,77,0,0,29,0
11/05/94,20:25:00,0,0,0,0,67,39,102,64,77,0,0,38,0
11/05/94,20:30:00,1,0,0,0,68,39,104,64,77,0,0,29,0
11/05/94,20:35:00,5,5,13,7,69,40,105,64,77,0,0,33,0
11/05/94,20:40:00,0,0,3,0,71,41,108,64,77,0,0,41,0
11/05/94,20:45:00,0,0,0,0,72,41,110,64,77,0,0,28,0
11/05/94,20:50:00,0,0,0,0,74,42,111,64,77,0,0,37,0
11/05/94,20:55:00,0,0,0,0,75,42,113,64,86,0,0,37,0
11/05/94,21:00:00,0,0,0,0,76,43,115,64,86,0,0,31,0
11/05/94,21:05:00,0,0,0,0,77,44,116,64,86,0,0,40,0
11/05/94,21:10:00,0,12,8,0,79,44,118,64,85,0,0,29,0
11/05/94,21:15:00,0,0,0,0,80,45,120,64,85,0,0,34,0
11/05/94,21:20:00,0,0,0,0,81,45,121,64,85,0,0,39,0
11/05/94,21:25:00,1,0,0,0,82,46,123,64,85,0,0,28,0
11/05/94,21:30:00,3,1,0,0,83,46,124,63,85,0,0,38,0
11/05/94,21:35:00,0,0,0,0,84,47,126,63,85,0,0,26,0
11/05/94,21:40:00,0,0,2,0,85,47,127,63,85,0,0,33,0
11/05/94,21:45:00,0,0,0,0,86,48,128,63,85,0,0,36,0
11/05/94,21:50:00,0,0,10,0,86,48,130,63,85,0,0,29,0
11/05/94,21:55:00,6,12,12,3,87,49,131,63,85,0,0,37,0
11/05/94,22:00:00,0,4,2,0,88,49,132,63,85,0,0,25,0
11/05/94,22:05:00,0,4,9,0,89,50,134,63,93,0,0,34,0
11/05/94,22:10:00,1,9,4,7,90,50,135,63,92,0,0,29,0
11/05/94,22:15:00,15,12,13,9,91,51,136,63,92,0,0,29,0
11/05/94,22:20:00,0,0,10,0,91,51,137,63,92,0,0,34,0
11/05/94,22:25:00,0,0,0,0,92,52,138,63,92,0,0,24,0
11/05/94,22:30:00,0,0,13,1,93,52,139,63,93,0,0,34,0
11/05/94,22:35:00,5,3,4,3,93,52,139,66,92,0,0,25,0
11/05/94,22:40:00,4,3,8,2,94,53,141,63,92,0,0,31,0
11/05/94,22:45:00,0,0,2,0,94,53,142,63,96,0,0,32,0
11/05/94,22:50:00,3,6,5,0,95,54,143,63,92,0,0,27,0
11/05/94,22:55:00,0,0,0,0,96,54,144,63,92,0,0,36,0
11/05/94,23:00:00,0,0,0,0,97,55,146,66,92,0,0,24,0
11/05/94,23:05:00,0,0,0,0,98,55,147,66,92,0,0,32,0
11/05/94,23:10:00,0,0,0,0,99,56,149,66,92,0,0,30,0
11/05/94,23:15:00,0,0,0,0,100,56,150,66,92,0,0,27,0
11/05/94,23:20:00,0,0,3,0,99,56,148,66,92,0,0,35,0
11/05/94,23:25:00,9,8,2,0,98,55,147,66,92,0,0,24,0
11/05/94,23:30:00,0,0,1,0,97,55,146,66,92,0,0,31,0
11/05/94,23:35:00,6,3,6,5,99,56,149,65,92,0,0,30,0
11/05/94,23:40:00,6,11,4,7,100,57,151,65,92,0,0,25,0
11/05/94,23:45:00,2,0,7,4,99,56,149,65,92,0,0,34,0
11/05/94,23:50:00,3,4,10,8,103,59,155,65,92,0,0,22,0
11/05/94,23:55:00,4,3,0,3,104,59,157,65,92,0,0,30,0
11/06/94,00:00:00,0,0,0,0,99,56,148,65,92,0,0,27,0
